SCP
0 0 -0 -0 -0 0 0 0 -0 0 0 -0 0 0 -0 0 0 0 0 -0 -0 -0 -0 -0 -0 -0 -0 -0 -0 -0 -0 -0 -0 -0 -0 -0 -0 -0 -0 -0 -0 -0 -0 -0 -0 -0 -0 -0 -0
-0 0 0 -0 -0 -0 0 -0 0 0 0 0 0 0 0 0 0 0 -0 -0 -0 -0 -0 -0 -0 -0 -0 -0 -0 -0 -0 -0 -0 -0 -0 -0 -0 -0 -0 -0 -0 -0 -0 -0 -0 -0 -0 -0 -0
0 -0 0 -0 -0 -0 -0 -0 0 0 0 0 0 0 0 0 0 0 -0 -0 -0 -0 -0 -0 -0 -0 -0 -0 -0 -0 -0 -0 -0 -0 -0 -0 -0 -0 -0 -0 -0 -0 -0 -0 -0 -0 -0 -0 -0
0 0 -0 -0 0 0 -0 -0 -0 -0 0 0 0 0 0 -0 -0 -0 -0 0 -0 -0 -0 -0 -0 -0 -0 -0 -0 -0 -0 -0 -0 -0 -0 -0 -0 -0 -0 -0 -0 -0 -0 -0 -0 -0 -0 -0 -0
0 0 0 0 0 0 -0 0 -0 -0 0 0 0 0 0 -0 -0 -0 -0 0 -0 -0 -0 -0 -0 -0 -0 -0 -0 -0 -0 -0 -0 -0 -0 -0 -0 -0 -0 -0 -0 -0 -0 -0 -0 -0 -0 -0 -0
0 0 0 0 0 0 -0 0 0 0 0 0 0 0 0 0 0 0 -0 -0 -0 -0 -0 -0 -0 -0 -0 -0 -0 -0 -0 -0 -0 -0 -0 -0 -0 -0 -0 -0 -0 -0 -0 -0 -0 -0 -0 -0 -0
0 0 0 0 0 0 0 0 0 0 0 0 0 0 0 0 0 0 0 0 0 0 0 0 0 -0 -0 -0 -0 -0 -0 -0 -0 -0 -0 -0 -0 -0 -0 -0 -0 -0 -0 -0 -0 -0 -0 -0 -0
0 0 0 0 0 0 0 0 0 0 0 0 0 0 0 0 0 0 0 0 0 0 0 0 0 0 0 0 -0 -0 -0 -0 -0 -0 -0 -0 -0 0 0 0 0 -0 -0 -0 -0 -0 -0 -0 -0
0 0 0 0 0 0 0 0 0 0 0 0 0 0 0 0 0 0 0 0 0 0 0 0 0 0 0 0 0 0 -0 -0 -0 -0 -0 0 0 0 0 0 0 0 0 0 0 0 0 0 -0
0 0 0 0 0 0 0 0 0 0 0 0 0 0 0 0 0 0 0 0 0 0 0 0 0 0 0 0 0 0 0 0 0 0 0 0 0 0 0 0 0 0 0 0 0 0 0 0 0
0 0 0 0 0 0 0 0 0 0 0 0 0 0 0 0 0 0 0 0 0 0 0 0 0 0 0 0 0 0 0 0 0 0 0 0 0 0 0 0 0 0 0 0 0 0 0 0 0
0 0 0 0 0 0 0 0 0 0 0 0 0 0 0 0 0 0 0 0 0 0 0 0 0 0 0 0 0 0 0 0 0 0 0 0 0 0 0 0 0 0 0 0 0 0 0 0 0
0 0 0 0 0 0 0 0 0 0 0 0 0 0 0 0 0 0 0 0 0 0 0 0 0 0 0 0 0 0 0 0 0 0 0 0 0 0 0 0 0 0 0 0 0 0 0 0 0
0 0 0 0 0 0 0 0 0 0 0 0 0 0 0 0 0 0 0 0 0 0 0 0 0 0 0 0 0 0 0 0 0 0 0 0 0 0 0 0 0 0 0 0 0 0 0 0 0
0 0 0 0 0 0 0 0 0 0 0 0 0 0 0 0 0 0 0 0 0 0 0 0 0 0 0 0 0 0 0 0 0 0 0 0 0 0 0 0 0 0 0 0 0 0 0 0 0
0 0 0 0 0 0 0 0 0 0 0 0 0 0 0 0 0 0 0 0 0 0 0 0 0 0 0 0 0 0 0 0 0 0 0 0 0 0 0 0 0 0 0 0 0 0 0 0 0
0 0 0 0 0 0 0 0 0 0 0 0 0 0 0 0 0 0 0 0 0 0 0 0 0 0 0 0 0 0 0 0 0 0 0 0 0 0 0 0 0 0 0 0 0 0 0 0 0
0 0 0 0 0 0 0 0 0 0 0 0 0 0 0 0 0 0 0 0 0 0 0 0 0 0 0 0 0 0 0 0 0 0 0 0 0 0 0 0 0 0 0 0 0 0 0 0 0
0 0 0 0 0 0 0 0 0 0 0 0 0 0 0 0 0 0 0 0 0 0 0 0 0 0 0 0 0 0 0 0 0 0 0 0 0 0 0 0 0 0 0 0 0 0 0 0 0
0 0 0 0 0 0 0 0 0 0 0 0 0 0 0 0 0 0 0 0 0 0 0 0 0 0 0 0 0 0 0 0 0 0 0 0 0 0 0 0 0 0 0 0 0 0 0 0 0
0 0 0 0 0 0 0 -0 0 0 0 0 0 0 0 0 0 0 0 0 0 0 0 0 0 0 0 0 0 0 0 0 0 0 0 0 0 0 0 0 0 0 0 0 0 0 0 0 0
0 0 0 0 0 0 0 -0 -0 0 0 0 0 0 0 0 0 0 0 0 0 0 0 0 0 0 0 0 0 0 0 0 0 0 0 0 0 0 0 0 0 0 0 0 0 0 0 0 0
0 0 0 0 0 0 0 0 -0 0 0 0 0 0 0 0 0 0 0 0 0 0 0 0 0 0 0 0 0 0 0 0 0 0 0 0 0 0 0 0 0 0 0 0 0 0 0 0 0
0 0 0 0 0 0 0 0 -0 0 0 0 0 0 0 0 0 0 0 0 0 0 0 0 0 0 0 0 0 0 0 0 0 0 0 0 0 0 0 0 0 0 0 0 0 0 0 0 0
0 0 0 0 0 0 0 0 0 0 0 0 0 0 0 0 0 0 0 0 0 0 0 0 0 0 0 0 0 0 0 0 0 0 0 0 0 0 0 0 0 0 0 0 0 0 0 0 0
0 0 0 0 0 0 0 0 0 0 0 0 0 0 0 0 0 0 0 0 0 0 0 0 0 0 0 0 0 0 0 0 0 0 0 0 0 0 0 0 0 0 0 0 0 0 0 0 0
0 0 0 0 0 0 0 0 0 0 0 0 0 0 0 0 0 0 0 0 0 0 0 0 0 0 0 0 0 0 0 0 0 0 0 0 0 0 0 0 0 0 0 0 0 0 0 0 0
0 0 0 0 0 0 0 0 0 0 -0 -0 -0 0 0 0 0 0 0 0 0 0 0 0 0 0 0 0 0 0 0 0 0 0 0 0 0 0 0 0 0 0 0 0 0 0 0 0 0
0 0 0 0 0 0 0 0 0 0 0 0 0 0 0 0 0 0 0 0 0 0 0 0 0 0 0 0 0 0 0 0 0 0 0 0 0 0 0 0 0 0 0 0 0 0 0 0 0
0 0 0 0 0 0 0 -0 0 0 0 0 0 0 0 0 0 0 0 0 0 0 0 0 0 0 0 0 0 0 0 0 0 0 0 0 0 0 0 0 0 0 0 0 0 0 0 0 0
Wind_Speed_500mb
6 7 10 4 8 11 3 5 2 4 5 10 18 16 17 12 5 5 30 21 15 21 29 28 25 22 21 20 18 16 16 14 12 15 21 25 26 27 27 25 22 20 20 19 17 18 19 19 19
9 11 6 4 10 7 8 7 10 9 28 35 27 17 12 5 7 17 17 17 17 26 29 28 26 23 21 19 17 15 13 12 11 12 18 23 24 26 26 26 24 23 22 22 20 19 19 18 18
10 7 3 9 7 8 9 8 8 23 37 6 11 15 8 7 15 12 17 24 25 29 28 28 27 24 21 18 16 15 12 11 10 8 14 18 20 23 25 25 23 23 22 23 21 20 18 17 15
7 4 10 8 5 6 9 12 14 21 6 8 24 14 9 10 13 15 22 24 29 24 27 25 27 26 23 19 16 14 12 10 9 10 10 16 21 23 25 25 23 21 21 22 22 21 19 17 16
8 7 8 7 4 4 5 13 23 10 12 16 9 11 10 14 19 20 28 28 25 22 24 24 24 25 25 25 20 16 13 9 11 9 5 11 15 19 22 23 23 23 23 23 22 21 20 18 17
7 6 9 4 5 5 5 15 11 7 10 17 13 23 14 24 24 26 29 32 28 22 25 23 22 19 20 24 23 19 16 12 13 10 2 7 10 16 18 20 21 22 22 22 22 20 19 17 15
12 8 9 8 8 2 8 15 15 15 15 5 26 12 16 30 30 31 32 34 29 30 28 24 25 26 22 21 22 20 18 14 14 12 5 2 5 11 14 17 20 20 20 20 20 20 18 16 13
8 10 8 6 11 9 8 10 12 22 6 26 17 13 13 41 36 36 35 36 39 38 35 31 33 28 28 24 21 21 18 16 15 12 9 7 4 7 13 17 21 20 19 18 19 18 16 14 12
6 9 5 12 13 9 15 7 9 12 23 16 20 13 16 49 43 41 40 40 44 44 35 34 33 34 33 27 24 24 22 20 17 18 15 11 9 7 11 16 23 22 24 23 21 19 17 15 13
8 8 16 10 9 8 13 10 21 13 16 11 18 23 37 52 50 47 46 45 48 46 43 40 39 37 35 33 30 29 29 27 25 24 20 16 8 8 1 11 18 18 22 27 24 22 21 18 17
6 9 9 6 5 9 13 8 17 15 8 25 36 40 51 54 53 51 49 48 47 50 47 44 43 40 38 40 37 35 35 31 29 25 26 22 20 15 8 6 3 12 15 16 19 18 19 18 17
3 3 5 4 6 9 10 7 10 26 18 18 26 38 52 56 56 55 53 52 51 51 51 53 50 46 42 42 42 40 35 32 32 31 29 24 26 23 19 13 8 1 9 8 5 7 10 9 7
2 3 4 5 11 12 10 16 19 25 36 24 29 43 48 53 54 53 52 51 51 52 52 54 55 55 52 49 48 45 43 36 38 39 34 29 33 34 27 20 18 10 6 15 6 4 4 2 6
3 3 7 10 15 12 10 11 11 19 34 33 35 46 50 52 52 54 56 54 53 51 51 51 53 52 53 54 54 51 45 48 43 40 39 33 40 36 24 29 21 12 6 12 9 12 10 3 6
1 7 12 17 13 11 14 15 22 34 34 42 45 46 50 51 53 56 49 50 48 47 46 46 47 50 52 53 55 57 55 47 46 45 42 41 42 38 34 39 24 16 8 16 11 12 8 6 8
5 9 5 7 12 6 15 22 11 27 43 50 52 53 54 55 57 52 52 49 48 46 43 41 41 43 45 52 50 55 55 54 51 49 41 48 46 45 42 34 24 17 19 16 15 13 8 6 2
10 6 9 16 19 5 8 17 5 12 38 51 57 60 60 58 58 58 56 53 51 48 45 44 42 41 43 51 52 54 50 54 53 47 41 41 31 50 45 30 20 20 19 16 14 13 9 11 18
11 8 8 12 5 6 10 27 18 20 31 52 55 62 64 65 69 61 59 57 57 53 50 47 45 43 45 52 55 57 60 56 45 33 38 37 50 34 23 23 26 25 19 21 17 13 19 21 23
8 8 11 8 6 8 17 21 35 37 39 48 57 62 73 78 69 64 63 61 59 56 53 49 46 43 46 53 61 60 61 58 57 55 51 49 44 32 34 33 31 30 27 21 21 21 25 29 25
6 7 13 12 10 12 21 29 24 21 30 58 77 82 86 82 81 75 74 70 65 57 52 51 47 43 42 48 57 57 56 58 54 52 50 45 40 36 32 32 35 31 27 25 25 21 26 28 25
12 13 10 16 9 9 13 20 18 19 46 72 78 93 90 95 92 82 81 78 68 63 58 53 47 41 45 54 54 62 60 60 61 59 56 49 39 36 33 34 34 32 30 33 30 25 18 19 18
12 16 12 11 1 10 4 26 13 15 25 18 72 80 85 84 81 83 86 83 77 66 56 50 47 45 46 54 61 61 63 66 63 63 56 49 42 43 39 39 38 38 36 32 29 26 21 16 14
14 9 11 2 6 7 3 9 1 7 13 27 50 66 68 71 78 84 86 89 77 64 58 52 50 48 51 55 58 65 71 66 65 62 58 53 46 43 45 44 43 38 33 28 22 17 13 11 6
15 10 10 8 3 12 21 16 53 12 16 13 32 40 47 53 62 67 71 86 76 65 60 55 56 54 56 58 69 65 68 69 68 65 61 56 53 54 51 47 41 36 31 25 20 16 13 10 6
6 13 4 7 2 16 6 11 38 18 18 18 22 37 32 36 48 60 71 82 79 72 65 61 62 63 64 65 66 71 72 68 69 65 57 61 65 65 60 52 45 38 31 25 21 17 13 8 6
15 16 12 14 9 10 4 16 13 17 37 50 47 44 31 35 43 54 62 74 80 74 69 66 67 68 70 70 74 74 74 70 70 68 68 70 69 67 61 53 44 36 30 25 20 14 10 8 6
11 14 9 7 3 3 10 16 16 18 24 47 24 26 27 32 44 51 57 72 79 75 70 69 70 72 72 71 72 72 73 73 71 70 71 71 71 66 59 50 42 36 30 24 19 14 10 8 5
13 14 5 2 4 11 10 12 16 15 24 18 12 30 33 29 40 48 56 72 76 71 68 70 71 72 70 71 73 75 72 73 73 74 73 74 70 65 58 50 42 36 29 24 20 15 11 7 5
7 8 5 8 10 9 6 14 15 12 9 17 18 25 34 36 40 49 56 69 73 70 72 73 76 78 77 75 75 75 75 75 75 74 76 74 69 63 56 48 42 35 30 26 19 15 11 9 6
2 15 16 8 11 8 4 33 8 14 8 14 25 19 21 33 36 46 54 66 71 70 71 76 79 81 78 78 81 78 77 78 82 84 82 76 68 61 54 48 43 38 32 26 21 15 12 10 8
Wind_Direction_500mb
198 173 182 177 58 65 331 251 274 146 53 66 110 115 128 71 126 202 146 155 162 174 169 167 167 158 156 152 145 135 125 111 86 73 59 51 46 41 42 45 47 52 61 66 76 84 96 97 92
157 161 164 131 88 79 273 266 181 185 135 107 88 85 56 86 93 137 154 177 173 175 171 169 171 168 165 161 154 145 138 127 109 87 61 56 51 46 42 46 52 54 52 55 61 74 95 107 108
143 147 169 92 108 158 183 221 206 144 146 117 111 85 94 106 129 149 147 162 152 173 173 174 175 175 174 172 168 162 154 146 143 111 68 61 57 52 51 51 51 54 58 63 68 77 92 107 113
149 106 62 80 136 218 199 189 173 144 224 186 129 74 99 146 152 165 157 155 165 169 178 179 179 180 181 183 184 180 171 165 156 143 74 56 55 53 52 55 57 59 59 63 67 75 90 103 113
125 83 59 74 306 270 244 180 170 152 144 147 150 157 127 150 158 164 159 158 160 178 181 182 187 187 189 187 191 190 185 183 175 164 82 53 55 49 46 49 52 56 60 64 68 76 91 105 115
84 78 66 164 249 285 288 181 174 137 138 145 119 133 149 161 160 164 157 165 163 185 180 188 186 202 191 188 193 195 195 190 186 185 142 62 50 45 49 56 61 61 60 63 70 77 86 96 114
112 82 170 155 187 232 215 181 179 153 139 155 146 126 166 172 171 170 170 177 180 175 182 191 207 209 212 202 203 204 200 202 201 196 195 153 54 47 56 59 60 61 66 71 75 77 82 92 107
115 92 117 189 186 228 185 163 173 159 158 152 167 175 183 184 181 181 182 191 186 182 190 196 204 205 217 217 213 212 216 212 207 208 210 173 138 82 73 71 72 73 72 72 73 77 81 84 88
112 67 162 181 156 242 173 141 156 164 151 178 191 190 195 185 186 188 190 191 193 194 193 200 201 204 210 206 209 216 214 213 212 199 214 208 140 105 74 74 63 79 74 70 67 68 69 68 66
84 105 205 194 193 224 185 176 171 165 162 195 190 192 177 186 192 194 195 197 199 197 206 204 204 206 210 208 213 216 221 215 206 207 216 225 214 203 67 76 64 68 71 64 63 68 68 67 66
135 167 200 205 188 218 187 216 189 170 227 207 199 186 183 189 195 200 203 208 211 211 210 209 219 211 213 215 213 222 217 220 212 213 223 217 224 203 209 158 22 27 41 45 63 77 76 69 65
101 223 178 185 190 173 185 193 214 204 229 234 218 202 192 196 201 206 209 213 217 219 221 223 225 222 217 217 217 216 223 219 219 221 219 232 202 209 204 199 203 264 329 341 33 82 90 76 41
147 260 216 211 222 236 211 224 224 231 233 232 209 202 203 204 209 213 219 224 225 225 225 225 228 230 227 219 216 218 217 222 222 227 230 216 224 223 205 208 204 195 285 304 271 304 262 345 340
177 227 269 246 237 242 208 242 210 236 225 218 206 204 208 211 214 216 221 226 229 229 229 228 227 225 223 221 216 215 215 220 224 227 223 227 224 219 228 217 198 213 254 291 259 294 256 294 6
18 319 325 252 240 228 207 284 234 233 213 211 208 211 213 216 219 226 235 235 233 232 229 226 223 223 222 219 213 216 220 221 220 226 228 224 219 234 219 208 203 215 231 276 251 271 238 291 318
37 52 345 294 158 246 162 271 265 237 211 213 217 217 221 223 229 230 230 230 226 222 221 220 219 219 217 216 208 212 221 223 222 226 218 227 233 221 215 220 210 237 272 237 245 236 227 259 151
8 240 213 310 203 132 170 263 278 224 212 225 223 225 227 230 231 231 230 228 225 223 223 223 223 222 216 211 204 206 210 205 201 223 220 216 216 210 206 209 248 250 228 238 222 208 220 171 146
208 223 243 242 211 174 220 263 263 254 228 236 237 233 233 233 238 236 231 226 224 224 225 226 227 227 218 211 204 203 210 213 208 210 199 210 214 196 209 232 235 223 219 207 207 214 172 158 147
152 198 241 247 244 179 234 241 258 246 233 242 244 240 238 237 240 233 231 228 225 225 226 228 230 228 222 212 205 207 212 213 216 213 213 210 224 234 228 228 217 210 201 205 182 185 170 156 152
210 241 260 290 234 193 267 258 249 225 232 241 243 244 242 240 237 230 226 225 225 227 228 226 225 224 220 208 205 204 209 206 205 201 198 195 198 218 210 210 193 189 195 191 168 171 169 164 165
223 208 232 228 323 248 299 265 231 245 235 248 250 253 252 246 239 230 224 224 223 224 224 223 222 219 213 203 208 200 199 199 193 191 190 190 196 198 201 195 191 185 185 172 159 153 157 170 171
236 209 203 242 328 258 9 293 200 228 240 237 250 248 247 244 244 239 228 223 223 222 221 218 215 214 207 203 203 212 208 195 192 190 190 188 186 192 193 189 181 174 168 168 166 158 160 153 156
226 138 178 175 203 331 205 283 262 186 248 248 250 253 251 253 249 242 232 227 222 217 218 214 210 208 201 201 197 198 195 195 192 188 185 183 184 188 184 180 175 175 175 173 167 161 159 150 139
147 88 59 58 55 268 190 185 285 170 213 251 260 260 262 258 248 241 233 222 215 212 212 210 208 202 201 203 203 200 207 203 192 188 187 185 183 183 179 177 178 179 176 171 168 165 164 159 139
121 101 312 319 349 250 351 219 253 306 281 237 257 270 270 255 239 231 223 214 208 209 208 207 204 201 200 205 204 208 201 202 198 193 196 197 186 183 181 182 181 181 179 174 172 168 162 142 103
189 159 161 224 216 272 328 241 247 233 262 268 273 275 264 244 238 233 224 213 207 208 210 208 204 202 201 204 207 208 203 204 201 199 197 193 189 184 182 182 182 181 180 179 175 171 161 129 94
194 205 171 84 82 351 224 289 291 267 274 267 266 267 260 241 231 226 217 210 206 209 213 211 206 202 204 206 206 208 205 205 206 202 195 191 186 185 184 184 184 184 182 176 171 168 160 142 109
158 161 88 34 230 257 274 267 236 275 268 303 254 239 240 229 221 218 213 207 207 212 214 211 208 205 206 209 210 208 208 207 206 201 197 192 189 189 187 186 186 185 180 178 176 174 168 151 124
142 178 181 140 156 195 301 258 216 232 267 287 293 283 247 228 220 216 212 208 210 212 214 211 206 205 208 211 210 209 208 206 204 203 197 195 194 192 191 189 189 187 185 183 183 179 173 169 176
92 190 170 165 222 240 151 264 180 228 271 296 305 304 253 235 228 220 212 209 211 215 215 214 209 208 212 213 212 211 209 208 205 201 198 197 197 195 195 193 191 189 187 186 179 182 188 196 200
Wind_Speed_850mb
6 7 10 4 8 11 3 5 2 4 5 10 18 16 17 12 5 5 30 21 15 21 29 28 25 22 21 20 18 16 16 14 12 15 21 25 26 27 27 25 22 20 20 19 17 18 19 19 19
9 11 6 4 10 7 8 7 10 9 28 35 27 17 12 5 7 17 17 17 17 26 29 28 26 23 21 19 17 15 13 12 11 12 18 23 24 26 26 26 24 23 22 22 20 19 19 18 18
10 7 3 9 7 8 9 8 8 23 37 6 11 15 8 7 15 12 17 24 25 29 28 28 27 24 21 18 16 15 12 11 10 8 14 18 20 23 25 25 23 23 22 23 21 20 18 17 15
7 4 10 8 5 6 9 12 14 21 6 8 24 14 9 10 13 15 22 24 29 24 27 25 27 26 23 19 16 14 12 10 9 10 10 16 21 23 25 25 23 21 21 22 22 21 19 17 16
8 7 8 7 4 4 5 13 23 10 12 16 9 11 10 14 19 20 28 28 25 22 24 24 24 25 25 25 20 16 13 9 11 9 5 11 15 19 22 23 23 23 23 23 22 21 20 18 17
7 6 9 4 5 5 5 15 11 7 10 17 13 23 14 24 24 26 29 32 28 22 25 23 22 19 20 24 23 19 16 12 13 10 2 7 10 16 18 20 21 22 22 22 22 20 19 17 15
12 8 9 8 8 2 8 15 15 15 15 5 26 12 16 30 30 31 32 34 29 30 28 24 25 26 22 21 22 20 18 14 14 12 5 2 5 11 14 17 20 20 20 20 20 20 18 16 13
8 10 8 6 11 9 8 10 12 22 6 26 17 13 13 41 36 36 35 36 39 38 35 31 33 28 28 24 21 21 18 16 15 12 9 7 4 7 13 17 21 20 19 18 19 18 16 14 12
6 9 5 12 13 9 15 7 9 12 23 16 20 13 16 49 43 41 40 40 44 44 35 34 33 34 33 27 24 24 22 20 17 18 15 11 9 7 11 16 23 22 24 23 21 19 17 15 13
8 8 16 10 9 8 13 10 21 13 16 11 18 23 37 52 50 47 46 45 48 46 43 40 39 37 35 33 30 29 29 27 25 24 20 16 8 8 1 11 18 18 22 27 24 22 21 18 17
6 9 9 6 5 9 13 8 17 15 8 25 36 40 51 54 53 51 49 48 47 50 47 44 43 40 38 40 37 35 35 31 29 25 26 22 20 15 8 6 3 12 15 16 19 18 19 18 17
3 3 5 4 6 9 10 7 10 26 18 18 26 38 52 56 56 55 53 52 51 51 51 53 50 46 42 42 42 40 35 32 32 31 29 24 26 23 19 13 8 1 9 8 5 7 10 9 7
2 3 4 5 11 12 10 16 19 25 36 24 29 43 48 53 54 53 52 51 51 52 52 54 55 55 52 49 48 45 43 36 38 39 34 29 33 34 27 20 18 10 6 15 6 4 4 2 6
3 3 7 10 15 12 10 11 11 19 34 33 35 46 50 52 52 54 56 54 53 51 51 51 53 52 53 54 54 51 45 48 43 40 39 33 40 36 24 29 21 12 6 12 9 12 10 3 6
1 7 12 17 13 11 14 15 22 34 34 42 45 46 50 51 53 56 49 50 48 47 46 46 47 50 52 53 55 57 55 47 46 45 42 41 42 38 34 39 24 16 8 16 11 12 8 6 8
5 9 5 7 12 6 15 22 11 27 43 50 52 53 54 55 57 52 52 49 48 46 43 41 41 43 45 52 50 55 55 54 51 49 41 48 46 45 42 34 24 17 19 16 15 13 8 6 2
10 6 9 16 19 5 8 17 5 12 38 51 57 60 60 58 58 58 56 53 51 48 45 44 42 41 43 51 52 54 50 54 53 47 41 41 31 50 45 30 20 20 19 16 14 13 9 11 18
11 8 8 12 5 6 10 27 18 20 31 52 55 62 64 65 69 61 59 57 57 53 50 47 45 43 45 52 55 57 60 56 45 33 38 37 50 34 23 23 26 25 19 21 17 13 19 21 23
8 8 11 8 6 8 17 21 35 37 39 48 57 62 73 78 69 64 63 61 59 56 53 49 46 43 46 53 61 60 61 58 57 55 51 49 44 32 34 33 31 30 27 21 21 21 25 29 25
6 7 13 12 10 12 21 29 24 21 30 58 77 82 86 82 81 75 74 70 65 57 52 51 47 43 42 48 57 57 56 58 54 52 50 45 40 36 32 32 35 31 27 25 25 21 26 28 25
12 13 10 16 9 9 13 20 18 19 46 72 78 93 90 95 92 82 81 78 68 63 58 53 47 41 45 54 54 62 60 60 61 59 56 49 39 36 33 34 34 32 30 33 30 25 18 19 18
12 16 12 11 1 10 4 26 13 15 25 18 72 80 85 84 81 83 86 83 77 66 56 50 47 45 46 54 61 61 63 66 63 63 56 49 42 43 39 39 38 38 36 32 29 26 21 16 14
14 9 11 2 6 7 3 9 1 7 13 27 50 66 68 71 78 84 86 89 77 64 58 52 50 48 51 55 58 65 71 66 65 62 58 53 46 43 45 44 43 38 33 28 22 17 13 11 6
15 10 10 8 3 12 21 16 53 12 16 13 32 40 47 53 62 67 71 86 76 65 60 55 56 54 56 58 69 65 68 69 68 65 61 56 53 54 51 47 41 36 31 25 20 16 13 10 6
6 13 4 7 2 16 6 11 38 18 18 18 22 37 32 36 48 60 71 82 79 72 65 61 62 63 64 65 66 71 72 68 69 65 57 61 65 65 60 52 45 38 31 25 21 17 13 8 6
15 16 12 14 9 10 4 16 13 17 37 50 47 44 31 35 43 54 62 74 80 74 69 66 67 68 70 70 74 74 74 70 70 68 68 70 69 67 61 53 44 36 30 25 20 14 10 8 6
11 14 9 7 3 3 10 16 16 18 24 47 24 26 27 32 44 51 57 72 79 75 70 69 70 72 72 71 72 72 73 73 71 70 71 71 71 66 59 50 42 36 30 24 19 14 10 8 5
13 14 5 2 4 11 10 12 16 15 24 18 12 30 33 29 40 48 56 72 76 71 68 70 71 72 70 71 73 75 72 73 73 74 73 74 70 65 58 50 42 36 29 24 20 15 11 7 5
7 8 5 8 10 9 6 14 15 12 9 17 18 25 34 36 40 49 56 69 73 70 72 73 76 78 77 75 75 75 75 75 75 74 76 74 69 63 56 48 42 35 30 26 19 15 11 9 6
2 15 16 8 11 8 4 33 8 14 8 14 25 19 21 33 36 46 54 66 71 70 71 76 79 81 78 78 81 78 77 78 82 84 82 76 68 61 54 48 43 38 32 26 21 15 12 10 8
Wind_Direction_850mb
198 173 182 177 58 65 331 251 274 146 53 66 110 115 128 71 126 202 146 155 162 174 169 167 167 158 156 152 145 135 125 111 86 73 59 51 46 41 42 45 47 52 61 66 76 84 96 97 92
157 161 164 131 88 79 273 266 181 185 135 107 88 85 56 86 93 137 154 177 173 175 171 169 171 168 165 161 154 145 138 127 109 87 61 56 51 46 42 46 52 54 52 55 61 74 95 107 108
143 147 169 92 108 158 183 221 206 144 146 117 111 85 94 106 129 149 147 162 152 173 173 174 175 175 174 172 168 162 154 146 143 111 68 61 57 52 51 51 51 54 58 63 68 77 92 107 113
149 106 62 80 136 218 199 189 173 144 224 186 129 74 99 146 152 165 157 155 165 169 178 179 179 180 181 183 184 180 171 165 156 143 74 56 55 53 52 55 57 59 59 63 67 75 90 103 113
125 83 59 74 306 270 244 180 170 152 144 147 150 157 127 150 158 164 159 158 160 178 181 182 187 187 189 187 191 190 185 183 175 164 82 53 55 49 46 49 52 56 60 64 68 76 91 105 115
84 78 66 164 249 285 288 181 174 137 138 145 119 133 149 161 160 164 157 165 163 185 180 188 186 202 191 188 193 195 195 190 186 185 142 62 50 45 49 56 61 61 60 63 70 77 86 96 114
112 82 170 155 187 232 215 181 179 153 139 155 146 126 166 172 171 170 170 177 180 175 182 191 207 209 212 202 203 204 200 202 201 196 195 153 54 47 56 59 60 61 66 71 75 77 82 92 107
115 92 117 189 186 228 185 163 173 159 158 152 167 175 183 184 181 181 182 191 186 182 190 196 204 205 217 217 213 212 216 212 207 208 210 173 138 82 73 71 72 73 72 72 73 77 81 84 88
112 67 162 181 156 242 173 141 156 164 151 178 191 190 195 185 186 188 190 191 193 194 193 200 201 204 210 206 209 216 214 213 212 199 214 208 140 105 74 74 63 79 74 70 67 68 69 68 66
84 105 205 194 193 224 185 176 171 165 162 195 190 192 177 186 192 194 195 197 199 197 206 204 204 206 210 208 213 216 221 215 206 207 216 225 214 203 67 76 64 68 71 64 63 68 68 67 66
135 167 200 205 188 218 187 216 189 170 227 207 199 186 183 189 195 200 203 208 211 211 210 209 219 211 213 215 213 222 217 220 212 213 223 217 224 203 209 158 22 27 41 45 63 77 76 69 65
101 223 178 185 190 173 185 193 214 204 229 234 218 202 192 196 201 206 209 213 217 219 221 223 225 222 217 217 217 216 223 219 219 221 219 232 202 209 204 199 203 264 329 341 33 82 90 76 41
147 260 216 211 222 236 211 224 224 231 233 232 209 202 203 204 209 213 219 224 225 225 225 225 228 230 227 219 216 218 217 222 222 227 230 216 224 223 205 208 204 195 285 304 271 304 262 345 340
177 227 269 246 237 242 208 242 210 236 225 218 206 204 208 211 214 216 221 226 229 229 229 228 227 225 223 221 216 215 215 220 224 227 223 227 224 219 228 217 198 213 254 291 259 294 256 294 6
18 319 325 252 240 228 207 284 234 233 213 211 208 211 213 216 219 226 235 235 233 232 229 226 223 223 222 219 213 216 220 221 220 226 228 224 219 234 219 208 203 215 231 276 251 271 238 291 318
37 52 345 294 158 246 162 271 265 237 211 213 217 217 221 223 229 230 230 230 226 222 221 220 219 219 217 216 208 212 221 223 222 226 218 227 233 221 215 220 210 237 272 237 245 236 227 259 151
8 240 213 310 203 132 170 263 278 224 212 225 223 225 227 230 231 231 230 228 225 223 223 223 223 222 216 211 204 206 210 205 201 223 220 216 216 210 206 209 248 250 228 238 222 208 220 171 146
208 223 243 242 211 174 220 263 263 254 228 236 237 233 233 233 238 236 231 226 224 224 225 226 227 227 218 211 204 203 210 213 208 210 199 210 214 196 209 232 235 223 219 207 207 214 172 158 147
152 198 241 247 244 179 234 241 258 246 233 242 244 240 238 237 240 233 231 228 225 225 226 228 230 228 222 212 205 207 212 213 216 213 213 210 224 234 228 228 217 210 201 205 182 185 170 156 152
210 241 260 290 234 193 267 258 249 225 232 241 243 244 242 240 237 230 226 225 225 227 228 226 225 224 220 208 205 204 209 206 205 201 198 195 198 218 210 210 193 189 195 191 168 171 169 164 165
223 208 232 228 323 248 299 265 231 245 235 248 250 253 252 246 239 230 224 224 223 224 224 223 222 219 213 203 208 200 199 199 193 191 190 190 196 198 201 195 191 185 185 172 159 153 157 170 171
236 209 203 242 328 258 9 293 200 228 240 237 250 248 247 244 244 239 228 223 223 222 221 218 215 214 207 203 203 212 208 195 192 190 190 188 186 192 193 189 181 174 168 168 166 158 160 153 156
226 138 178 175 203 331 205 283 262 186 248 248 250 253 251 253 249 242 232 227 222 217 218 214 210 208 201 201 197 198 195 195 192 188 185 183 184 188 184 180 175 175 175 173 167 161 159 150 139
147 88 59 58 55 268 190 185 285 170 213 251 260 260 262 258 248 241 233 222 215 212 212 210 208 202 201 203 203 200 207 203 192 188 187 185 183 183 179 177 178 179 176 171 168 165 164 159 139
121 101 312 319 349 250 351 219 253 306 281 237 257 270 270 255 239 231 223 214 208 209 208 207 204 201 200 205 204 208 201 202 198 193 196 197 186 183 181 182 181 181 179 174 172 168 162 142 103
189 159 161 224 216 272 328 241 247 233 262 268 273 275 264 244 238 233 224 213 207 208 210 208 204 202 201 204 207 208 203 204 201 199 197 193 189 184 182 182 182 181 180 179 175 171 161 129 94
194 205 171 84 82 351 224 289 291 267 274 267 266 267 260 241 231 226 217 210 206 209 213 211 206 202 204 206 206 208 205 205 206 202 195 191 186 185 184 184 184 184 182 176 171 168 160 142 109
158 161 88 34 230 257 274 267 236 275 268 303 254 239 240 229 221 218 213 207 207 212 214 211 208 205 206 209 210 208 208 207 206 201 197 192 189 189 187 186 186 185 180 178 176 174 168 151 124
142 178 181 140 156 195 301 258 216 232 267 287 293 283 247 228 220 216 212 208 210 212 214 211 206 205 208 211 210 209 208 206 204 203 197 195 194 192 191 189 189 187 185 183 183 179 173 169 176
92 190 170 165 222 240 151 264 180 228 271 296 305 304 253 235 228 220 212 209 211 215 215 214 209 208 212 213 212 211 209 208 205 201 198 197 197 195 195 193 191 189 187 186 179 182 188 196 200